User: anonymous   Login
Location: Unspecified
(0.0000°N, 0.0000°E)
Time: 03:50:12
(UTC+02:00)
Language:

Cosmos 540 Rocket - Orbit

View from above orbital plane
View from above orbital plane
View from above satellite
View from above satellite

Ground track
Ground track

The orbit data is extracted from the following two-line orbital elements,

1 06324U 72104B   15242.57539647  .00000041  00000-0  20158-4 0  9994
2 06324 074.0749 242.6678 0009444 199.7058 160.3735 14.43214521240843
Epoch (UTC): 30 August 2015 13:48:34
Eccentricity: 0.0009444
inclination: 74.0749°
perigee height: 741 km
apogee height: 754 km
right ascension of ascending node: 242.6678°
argument of perigee: 199.7058°
revolutions per day: 14.43214521
mean anomaly at epoch: 160.3735°
orbit number at epoch: 24084

The dashed part of the orbit path shows where the satellite is in the earth's shadow,  

DLR